Location: Plateau_FTFHS
(35.6000°N, 81.3500°W)
Time: 07:04:36
(UTC-04:00)

Daily predictions for brighter satellites

Satellite Brightness Start Highest point End
(mag) Time Altitude Azimuth Time Altitude Azimuth Time Altitude Azimuth
YAOGAN 6 2.8 20:55:59 10° SSE 20:59:37 58° ENE 21:03:15 10° N
Okean 1 Rocket 3.7 20:56:15 10° N 21:00:18 37° E 21:04:19 10° SSE
Cosmos 1242 Rocket 4.3 21:04:10 10° NNE 21:06:40 17° ENE 21:09:08 10° ESE
Cosmos 1536 4.5 21:05:21 10° NNW 21:09:06 36° W 21:12:50 10° SSW
Cosmos 2360 4.3 21:03:34 10° NNW 21:09:19 87° ENE 21:15:01 10° SSE
BREEZE-M R/B 4.4 21:04:07 10° WSW 21:09:44 42° NW 21:12:51 10° NE
Thor Agena Rocket 3.6 21:07:08 10° NNE 21:12:25 88° ESE 21:17:36 10° SSW
Cosmos 2084 3.5 21:09:31 10° SSW 21:13:51 58° ESE 21:17:58 10° NE
Atlas Centaur 2 2.0 21:12:49 10° WSW 21:16:32 34° S 21:19:24 13° SE
Cosmos 1697 Rocket 3.9 21:12:43 10° NW 21:18:01 42° WSW 21:23:16 10° S
Cosmos 2233 Rocket 4.1 21:12:38 10° SSE 21:18:35 54° E 21:24:35 10° NNE
SJ-6B 4.2 21:17:30 10° SSW 21:20:57 37° W 21:24:27 10° NNW
Cosmos 1500 3.9 21:18:03 10° NNW 21:21:51 57° W 21:25:38 10° S
Cosmos 1975 3.2 21:19:19 10° N 21:23:13 46° E 21:26:50 11° SSE
Resurs 01 Rocket 1.6 21:22:14 10° SSE 21:26:37 82° ENE 21:31:03 10° N
Spot 2 Rocket 3.6 21:22:33 10° SSE 21:27:29 61° ENE 21:32:27 10° N
OAO 1 Rocket 4.4 21:22:45 10° W 21:28:05 84° S 21:33:26 10° E
Cosmos 2360 Rocket 4.0 21:25:11 10° NNE 21:28:42 17° NE 21:32:13 10° E
deb Kosmos-1763 4.0 21:25:36 10° SSW 21:29:17 80° ESE 21:32:59 10° NNE
Cosmos 468 Rocket 4.0 21:25:28 10° SSW 21:30:45 86° ESE 21:36:01 10° NNE
Cosmos 1980 Rocket 2.7 21:26:15 10° NNW 21:31:48 59° WSW 21:37:22 10° S
ERS-2 2.4 21:29:58 10° S 21:33:37 68° WSW 21:37:17 10° NNW
ATLAS CENTAUR R/B 2.7 21:29:51 10° NW 21:34:13 41° WSW 21:38:44 10° S
BREEZE-M DEB (TANK) 1.2 21:32:20 10° NW 21:35:11 65° NE 21:36:08 26° ESE
Cosmos 1937 Rocket 4.2 21:30:34 10° N 21:35:18 36° ENE 21:38:37 18° SE
Cosmos 1666 2.8 21:32:41 10° N 21:36:31 57° E 21:39:27 16° SSE
Cosmos 1763 Rocket 3.6 21:31:44 10° S 21:36:56 59° ESE 21:42:08 10° NNE
Cosmos 841 Rocket 3.8 21:37:36 10° S 21:42:32 44° ESE 21:47:31 10° NNE
Meteor 1-12 Rocket 4.4 21:37:44 10° N 21:43:43 71° E 21:49:05 13° SSE
EPKM 3.7 21:42:34 10° WSW 21:47:17 21° SSW 21:48:26 18° S
Delta 7925 Rocket 4.3 21:43:35 10° WSW 21:47:29 26° S 21:49:13 21° SSE
Cosmos 1743 2.6 21:45:14 10° N 21:49:04 78° E 21:51:39 19° SSE
GPS 2-05 Rocket1 3.7 21:48:30 10° SW 21:51:14 27° SSE 21:51:14 27° SSE
Iridium 2 3.7 21:49:32 18° S 21:52:15 64° E 21:56:03 10° N
GPS 2-04 Rocket1 4.1 21:50:31 10° W 21:54:06 27° SSW 21:55:49 21° SSE
USA 234 3.6 21:52:07 10° NE 21:58:39 71° NW 22:05:10 10° SW
Cosmos 858 Rocket 4.5 21:53:28 10° NNW 21:58:40 71° ENE 22:01:47 24° SSE
Centaur D-1A AC-31 2.1 21:54:10 10° WSW 21:59:34 29° SSW 22:00:42 24° SSE
Cosmos 1833 4.2 21:57:16 10° S 22:02:54 58° ESE 22:08:28 10° NNE
Meteor 2-4 Rocket 3.6 21:58:25 11° S 22:03:34 71° E 22:09:05 10° NNE
Lacrosse 5 rocket 3.5 22:02:21 10° N 22:05:11 17° NE 22:07:25 12° ENE
ERS-1 Rocket 3.5 22:07:46 29° ESE 22:09:47 42° ENE 22:14:30 10° N
Cosmos 1464 Rocket 4.1 22:05:11 18° SSE 22:09:51 59° E 22:16:07 10° NNE
USA 245 3.8 22:16:24 35° E 22:16:44 35° ENE 22:20:30 10° N
Cosmos 1356 3.3 22:17:03 57° SE 22:17:29 64° E 22:20:56 10° NNE
Cosmos 1515 3.8 22:17:00 47° ESE 22:17:31 51° E 22:21:15 10° NNE
ARGOS 3.1 22:15:18 27° SSE 22:18:20 85° ENE 22:23:46 10° NNW
Cosmos 1898 Rocket 4.0 22:14:18 10° NNW 22:19:29 58° WSW 22:22:49 22° S
H-2A R/B 1.9 22:19:42 35° SSE 22:21:46 71° ENE 22:26:46 10° N
Tiangong 2 3.5 22:20:19 10° WNW 22:22:51 22° N 22:25:10 11° NE
Cosmos 2322 Rocket 2.3 22:17:50 10° NNW 22:23:26 73° WSW 22:26:18 30° S
CENTAUR R/B 2.6 22:18:10 10° SW 22:23:58 73° WNW 22:30:39 10° NNE
Cosmos 1455 Rocket 2.9 22:21:31 10° N 22:25:53 81° E 22:27:13 45° SSE
Cosmos 1340 Rocket 3.0 22:25:14 27° SSW 22:27:19 72° W 22:31:24 10° N
Cosmos 1891 Rocket 4.4 22:24:10 24° S 22:28:02 74° E 22:34:21 10° N
Cosmos 292 Rocket 4.1 22:24:46 10° SSW 22:29:29 64° WNW 22:34:13 10° N
SL-16 R/B 2.6 22:27:19 10° NNW 22:32:51 56° WSW 22:35:44 28° S
Cosmos 990 Rocket 4.4 22:30:14 10° NNW 22:35:21 57° WSW 22:37:44 30° SSW
Shenzhou-11 Module 3.3 22:33:24 10° NW 22:36:04 34° NNE 22:36:04 34° NNE
DMSP B5D2-2 4.0 22:36:23 10° NNE 22:41:41 76° ESE 22:43:33 41° S
Helios 1A 3.1 22:41:57 55° E 22:42:05 55° ENE 22:46:09 10° N
Aureole 2 Rocket 3.4 22:41:10 10° NNW 22:43:07 37° NW 22:43:07 37° NW
Cosmos 836 Rocket 4.3 22:43:06 45° S 22:44:41 74° ESE 22:49:53 10° NNE
MetOp-B 4.4 22:44:58 34° SSW 22:47:14 61° WSW 22:52:32 10° NNW
Cosmos 2219 3.9 22:48:54 35° E 22:48:54 35° E 22:53:32 10° NE
Okean 2 3.5 22:50:55 62° ENE 22:50:55 62° ENE 22:54:41 10° NNE
Cosmos 2237 4.4 22:46:08 10° NNW 22:51:47 57° ENE 22:52:56 48° ESE
Cosmos 1544 Rocket 4.4 22:48:56 10° NNW 22:53:11 46° W 22:54:28 35° SW
Meteor 1-15 Rocket 4.1 22:50:20 10° N 22:56:05 84° E 22:57:22 56° SSE
CZ-4C R/B 3.8 22:53:21 10° NNW 23:00:08 39° NE 23:03:19 28° E
Cosmos 1356 Rocket 3.7 23:03:26 62° NE 23:03:26 62° NE 23:07:08 10° NNE
SJ 16-02 1.3 23:01:06 10° NNW 23:05:18 75° NNE 23:05:18 75° NNE
Cosmos 540 Rocket 4.4 23:06:54 17° SW 23:10:31 45° WNW 23:15:29 10° N
Cosmos 2360 Rocket 2.3 23:07:35 10° NNW 23:13:10 65° WSW 23:14:04 56° SSW
OAO 1 Rocket 4.4 23:08:27 10° W 23:13:32 72° SW 23:13:32 72° SW
Helios 1B rocket 2.7 23:10:10 10° N 23:13:58 65° NW 23:13:58 65° NW
Landsat 7 3.7 23:14:41 88° NNW 23:14:41 88° NNW 23:19:25 10° NNW
Cosmos 2333 4.4 23:10:00 10° NNW 23:15:33 55° ENE 23:15:58 54° E
CZ-2C R/B 3.6 23:10:32 10° NNE 23:14:47 35° ENE 23:14:47 35° ENE
Cosmos 2219 Rocket 3.0 23:12:08 10° N 23:17:16 36° ENE 23:17:36 36° ENE
Cosmos 1092 Rocket 3.9 23:13:38 10° N 23:19:59 68° E 23:20:43 62° ESE
IGS 5A 4.1 23:21:30 53° N 23:21:30 53° N 23:24:45 10° N
Nadezhda 4 Rocket 4.0 23:16:14 10° N 23:22:33 77° W 23:23:53 57° SSW
SPOT 5 3.5 23:28:41 44° W 23:28:41 44° W 23:32:47 10° NNW
SL-19 R/B 4.4 23:30:46 68° S 23:31:34 80° WSW 23:38:02 10° NNW
Terra 2.0 23:34:00 68° NNW 23:34:00 68° NNW 23:38:10 10° NNW
CARTOSAT-1 4.4 23:39:20 48° NW 23:39:20 48° NW 23:42:39 10° NNW
Cosmos 372 Rocket 4.4 23:34:18 10° NNW 23:39:00 55° W 23:39:00 55° W
Cosmos 2333 Rocket 2.7 23:34:13 10° N 23:39:38 49° ENE 23:39:38 49° ENE
CZ-2C R/B 3.1 23:41:20 76° NNE 23:41:20 76° NNE 23:46:35 10° N
COSMOS 2428 2.6 23:37:08 10° NNW 23:42:36 83° N 23:42:36 83° N
Lacrosse 5 rocket 2.9 23:40:39 10° NW 23:43:05 32° WNW 23:43:05 32° WNW
NOSS 0 Rocket 4.5 23:40:32 10° N 23:46:31 46° ENE 23:46:47 46° ENE
Cosmos 2026 Rocket 3.9 23:43:22 10° N 23:49:21 72° ENE 23:49:21 72° ENE
Cosmos 2279 Rocket 4.1 23:50:11 62° ENE 23:50:11 62° ENE 23:55:54 10° NNE
Cosmos 1655 Rocket 4.4 23:47:08 10° N 23:53:03 49° ENE 23:53:03 49° ENE
